This is the latest recevied weather packets stored in our database for station/object IZ1UQG-N2. If no packets are shown the sender has not sent any weather packets the latest 10 day(s).
| Time | Temp. | Humidity | Pressure | Rain* | Wind** | Luminosity | Snow |
|---|---|---|---|---|---|---|---|
| 1788706545 | 30.56° C | 52% | 1018.7 hPa | 0 mm | - | 394 W/m² | - |
| 1788706484 | 30.56° C | 52% | 1018.6 hPa | 0 mm | - | 399 W/m² | - |
| 1788706424 | 30.56° C | 53% | 1018.6 hPa | 0 mm | - | 408 W/m² | - |
| 1788706402 | 30° C | 53% | 1018.8 hPa | 0 mm | - | 411 W/m² | - |
| 1788706306 | 30° C | 53% | 1018.7 hPa | 0 mm | - | 413 W/m² | - |
| 1788706246 | 30° C | 53% | 1018.7 hPa | 0 mm | - | 417 W/m² | - |
| 1788706185 | 30° C | 53% | 1018.7 hPa | 0 mm | - | 422 W/m² | - |
| 1788706125 | 30° C | 53% | 1018.7 hPa | 0 mm | - | 424 W/m² | - |
| 1788706065 | 30° C | 52% | 1018.6 hPa | 0 mm | - | 427 W/m² | - |
| 1788706004 | 30° C | 53% | 1018.7 hPa | 0 mm | - | 429 W/m² | - |
| 1788705944 | 30° C | 53% | 1018.7 hPa | 0 mm | - | 427 W/m² | - |
| 1788705886 | 30° C | 52% | 1018.7 hPa | 0 mm | - | 431 W/m² | - |
| 1788705825 | 30° C | 52% | 1018.8 hPa | 0 mm | - | 432 W/m² | - |
| 1788705765 | 30° C | 51% | 1018.7 hPa | 0 mm | - | 438 W/m² | - |
| 1788705705 | 30° C | 52% | 1018.8 hPa | 0 mm | - | 441 W/m² | - |
| 1788705645 | 30° C | 52% | 1018.7 hPa | 0 mm | - | 447 W/m² | - |
| 1788705585 | 30° C | 52% | 1018.8 hPa | 0 mm | - | 450 W/m² | - |
| 1788705525 | 30° C | 51% | 1018.8 hPa | 0 mm | - | 450 W/m² | - |
| 1788705464 | 30° C | 52% | 1018.8 hPa | 0 mm | - | 450 W/m² | - |
| 1788705404 | 30° C | 51% | 1018.7 hPa | 0 mm | - | 450 W/m² | - |
| 1788705344 | 30° C | 51% | 1018.8 hPa | 0 mm | - | 461 W/m² | - |
| 1788705285 | 30.56° C | 51% | 1018.7 hPa | 0 mm | - | 461 W/m² | - |
| 1788705225 | 30.56° C | 51% | 1018.8 hPa | 0 mm | - | 462 W/m² | - |
| 1788705165 | 30.56° C | 51% | 1018.9 hPa | 0 mm | - | 464 W/m² | - |
| 1788705105 | 30° C | 51% | 1018.8 hPa | 0 mm | - | 464 W/m² | - |
* Rain latest hour (hover to see other rain measurements)
** Current wind speed in m/s (hover to see current wind gust speed)